Regional Weather Roundup
Issued by NWS

Home | Current Version | Previous Version | Text Only | Print | Product List | Glossary Off
Versions: 1 2 3 4 5 6 7 8 9 10 11 12 13 14 15 16 17 18 19 20 21 22 23 24 25 26 27

000
ASUS45 KPSR 011110
RWRAZ

ARIZONA HOURLY REGIONAL WEATHER ROUNDUP
NATIONAL WEATHER SERVICE PHOENIX AZ
400 AM MST SAT OCT 01 2016

NOTE: FAIR INDICATES FEW OR NO CLOUDS BELOW 12,000 FEET WITH NO
SIGNIFICANT WEATHER AND/OR OBSTRUCTIONS TO VISIBILITY.

AZZ001>003-036-011200-
NORTHWEST ARIZONA

CITY           SKY/WX    TMP DP  RH WIND       PRES   REMARKS
BULLHEAD CITY  CLEAR     77  50  38 E5        29.91S
KINGMAN        CLEAR     65  32  29 SE13      30.08S
$$

AZZ004>008-015-016-018-011200-
NORTH CENTRAL ARIZONA

CITY           SKY/WX    TMP DP  RH WIND       PRES   REMARKS
GRAND CANYON   PTCLDY    42  39  89 CALM      30.28F
PRESCOTT       MOCLDY    52  49  89 SW3       30.20S
FLAGSTAFF      CLEAR     41  40  96 CALM      30.30F
PAYSON         CLEAR     55  43  62 CALM      30.23S
PAGE           CLEAR     61  52  72 SW3       30.14S
$$

AZZ009>014-017-011200-
NORTHEAST ARIZONA

CITY           SKY/WX    TMP DP  RH WIND       PRES   REMARKS
WINSLOW        CLEAR     49  47  93 CALM      30.20S
SAINT JOHNS    CLEAR     47  45  93 W5        30.23S
WINDOW ROCK    CLEAR     43  40  89 CALM      30.29F
SHOW LOW       CLEAR     48  45  87 S8        30.28S
$$

AZZ023-011200-
GREATER PHOENIX AREA

CITY           SKY/WX    TMP DP  RH WIND       PRES   REMARKS
PHOENIX        PTCLDY    77  57  50 E9        29.95S
BUCKEYE        CLEAR     72  52  49 N6        29.96S
LUKE AFB       CLEAR     73  54  50 N5        29.95S
DEER VALLEY    PTCLDY    73  48  41 NE3       29.98R
SCOTTSDALE     PTCLDY    74  55  51 CALM      29.99R
MESA-GATEWAY   CLEAR     68  57  68 SE5       29.99S
$$

AZZ027-028-011200-
SOUTHWEST MARICOPA COUNTY AND PINAL COUNTY

CITY           SKY/WX    TMP DP  RH WIND       PRES   REMARKS
CASA GRANDE    CLEAR     72  54  53 CALM      30.00R
GILA BEND      FAIR      77  53  42 S3        29.93S
$$

AZZ503-504-507>509-011200-
SOUTHEAST ARIZONA

CITY           SKY/WX    TMP DP  RH WIND       PRES   REMARKS
TUCSON         CLEAR     67  57  70 E6        30.08R
DAVIS-MONTHAN  CLEAR     65  58  77 E5        30.07S
NOGALES        CLEAR     57  53  86 CALM      30.15S
SIERRA VISTA   CLEAR     62  51  68 CALM      30.19F
DOUGLAS        CLEAR     55  52  89 SE3       30.17R
SAFFORD        CLEAR     60  55  83 CALM      30.09S
$$

AZZ020-021-025-026-031-011200-
SOUTHWEST ARIZONA

CITY           SKY/WX    TMP DP  RH WIND       PRES   REMARKS
YUMA           NOT AVBL
$$

CAZ031-033-041-043-047-048-061-011200-
SOUTHERN CALIFORNIA

CITY           SKY/WX    TMP DP  RH WIND       PRES   REMARKS
DOWNTOWN L.A.  CLEAR     66  60  81 CALM      29.96F
L.A. AIRPORT   CLEAR     67  61  81 CALM      29.96F
SAN DIEGO      PTCLDY    69  65  86 N3        29.98F
BURBANK        CLEAR     67  48  50 N3        29.97F
ONTARIO        CLEAR     66  50  56 CALM      29.98F
RIVERSIDE      CLEAR     67  51  56 CALM      29.99S
PALM SPRINGS   CLEAR     78  53  41 CALM      29.90F
EL CENTRO NAS  PTCLDY    83  52  34 SW12      29.88S
IMPERIAL       MOCLDY    79  52  38 SW3       29.86S
BLYTHE         CLEAR     80  58  46 S9        29.89S
NEEDLES          N/A    N/A N/A N/A MISG      29.91S
$$

NVZ020-UTZ003-011200-
SOUTHERN NEVADA-UTAH

CITY           SKY/WX    TMP DP  RH WIND       PRES   REMARKS
LAS VEGAS      PTCLDY    76  42  29 S6        29.96F
SALT LAKE CITY PTCLDY    63  48  58 SE12      30.05S
$$

NMZ009-TXZ055-011200-
NEW MEXICO-WEST TEXAS

CITY           SKY/WX    TMP DP  RH WIND       PRES   REMARKS
ALBUQUERQUE    PTCLDY    56  54  93 CALM      30.21S
EL PASO        PTCLDY    63  59  87 SE8       30.12F
$$


........................KEY........................
SKY/WX - SKY CONDITION/WEATHER
TMP    - TEMPERATURE IN FAHRENHEIT
DP     - DEW POINT IN FAHRENHEIT
RH     - RELATIVE HUMIDITY IN PERCENT
WIND   - DIRECTION AND SPEED IN MILES PER HOUR (MPH)
VRB    - VARIABLE WIND DIRECTION
PRES   - MEAN SEA LEVEL PRESSURE IN INCHES OF MERCURY
         F - FALLING PRESSURE   R - RISING PRESSURE
         S - STEADY PRESSURE
VSB    - VISIBILITY IN MILES
HX     - HEAT INDEX IN FAHRENHEIT
WCI    - WIND CHILL INDEX IN FAHRENHEIT
TC     - TEMPERATURE IN CELSIUS WHICH IS ALSO KNOWN AS
         TEMPERATURE IN CENTIGRADE
AFB    - AIR FORCE BASE
         LUKE AFB IS LUKE AIR FORCE BASE
         DAVIS-MONTHAN IS DAVIS-MONTHAN AIR FORCE BASE
NAS    - NAVAL AIR STATION
         EL CENTRO NAS IS EL CENTRO NAVAL AIR STATION
N/A    - NOT AVAILABLE





USA.gov is the U.S. government's official web portal to all federal, state and local government web resources and services.